Location: Unspecified
(47.9110°N, 14.3980°E)
Time: 08:20:16
(UTC+00:00)

Intercosmos 25 - Pass Details

Date: 06 August 2020
Orbit: 439 x 2877 km, 82.6° (Epoch: 26 September)

Event Time Altitude Azimuth Distance (km) Brightness Sun altitude
Rises 20:00:18 0° 348° (NNW) 3,657 8.5 -13.3°
Reaches altitude 10° 20:03:18 10° 345° (NNW) 2,381 7.5 -13.6°
Maximum altitude 20:08:11 59° 267° (W) 681 4.0 -14.2°
Enters shadow 20:11:11 13° 188° (S) 1,495 5.2 -14.5°
